Location: *
(35.8942°N, 23.3025°E)
Time: 23:36:46
(UTC+00:00)

USA 267 - Pass Details

Date: 21 September 2021
Orbit: 1101 x 1106 km, 123.0° (Epoch: 21 October)

Event Time Altitude Azimuth Distance (km) Brightness Sun altitude
Rises 03:39:18 0° 45° (NE) 3,921 7.1 -7.8°
Reaches altitude 10° 03:41:48 10° 48° (NE) 2,961 6.4 -7.3°
Maximum altitude 03:48:20 72° 132° (SE) 1,152 3.6 -6.0°
Drops below altitude 10° 03:54:50 10° 216° (SW) 2,948 5.1 -4.7°
Sets 03:57:19 0° 219° (SW) 3,903 5.7 -4.2°
